Tracking 19193 objects as of 24-Jun-2018
HD Live streaming from Space Station
objects crossing your sky now

FENGYUN 1C DEB

Track FENGYUN 1C DEB now!
10-day predictions


NORAD ID: 30944
Int'l Code: 1999-025BAJ
Perigee: 625.0 km
Apogee: 850.0 km
Inclination: 98.8 °
Period: 99.4 minutes
Semi major axis: 7108 km
RCS: 0.0014 m2 (small)
Launch date: May 10, 1999
Source: People's Republic of China (PRC)
Launch site: Taiyaun Space Center, China (TSC)

Note: This is SATELLITE DEBRIS
aabbcc
Your satellite tracking list
Your tracking list is empty




NASA's NSSDC Master Catalog

Two Line Element Set (TLE):
1 30944U 99025BAJ 18174.16363124 +.00000048 +00000-0 +23896-4 0  9996
2 30944 098.8355 056.5290 0158220 042.0231 107.7651 14.48553062595304
Source of the keplerian elements: AFSPC